カタログに戻る

FENGYUN 1C DEB

LostSSO
NORAD 37708·DEBRIS·🇨🇳 China

打ち上げ May 10, 1999 から Taiyuan Satellite Launch Center

Loading…

次のパス (今後24時間)

TLE

古いSource: Space-Track

元期: Aug 14, 2024, 02:14 UTC

1 37708U 99025ELZ 24227.09353258  .00044407  00000-0  68960-2 0  9992
2 37708  98.4441 335.5341 0275045 210.1265 148.3865 14.50617708851379

AllMySatでFENGYUN 1C DEBをリアルタイム追跡

Download on the App Store